QPF
0.01 0.00 0.00 0.00 0.00 0.00 0.00 0.01 0.01 0.01 0.01 0.00 0.01 0.00 0.00 0.00 0.00 0.00 0.00 0.00 0.00 0.00 0.00 0.00 0.00 0.00 0.00 0.00 0.00 0.00 0.00 0.00 0.00 0.00 0.00 0.00 0.00 0.01 0.01 0.01 0.05 0.08 0.04
0.01 0.00 0.00 0.00 0.00 0.00 0.00 0.01 0.01 0.01 0.01 0.01 0.00 0.00 0.00 0.00 0.00 0.00 0.00 0.00 0.00 0.00 0.00 0.00 0.00 0.00 0.00 0.00 0.00 0.00 0.00 0.00 0.00 0.00 0.00 0.00 0.00 0.00 0.01 0.02 0.09 0.12 0.03
0.01 0.01 0.00 0.00 0.00 0.00 0.00 0.01 0.01 0.01 0.01 0.01 0.01 0.00 0.00 0.00 0.00 0.00 0.00 0.00 0.00 0.00 0.00 0.00 0.00 0.00 0.00 0.00 0.00 0.00 0.00 0.00 0.00 0.01 0.04 0.07 0.04 0.01 0.01 0.01 0.04 0.03 0.01
0.01 0.01 0.00 0.00 0.00 0.00 0.00 0.01 0.01 0.01 0.01 0.00 0.00 0.00 0.00 0.00 0.00 0.00 0.00 0.00 0.00 0.00 0.01 0.00 0.00 0.00 0.00 0.00 0.00 0.00 0.00 0.00 0.00 0.02 0.11 0.12 0.08 0.03 0.01 0.00 0.01 0.01 0.01
0.01 0.01 0.00 0.00 0.00 0.00 0.01 0.01 0.01 0.01 0.00 0.00 0.00 0.00 0.00 0.00 0.00 0.00 0.01 0.00 0.00 0.00 0.01 0.01 0.01 0.01 0.00 0.00 0.00 0.00 0.00 0.00 0.00 0.03 0.06 0.08 0.10 0.05 0.02 0.01 0.01 0.02 0.02
0.02 0.01 0.00 0.00 0.00 0.00 0.01 0.01 0.01 0.01 0.01 0.00 0.00 0.00 0.00 0.00 0.00 0.00 0.01 0.01 0.00 0.00 0.00 0.01 0.02 0.01 0.01 0.01 0.01 0.02 0.02 0.01 0.02 0.05 0.05 0.08 0.12 0.07 0.02 0.02 0.01 0.01 0.02
0.01 0.01 0.01 0.00 0.00 0.01 0.01 0.01 0.01 0.01 0.01 0.01 0.01 0.01 0.00 0.00 0.00 0.00 0.00 0.00 0.01 0.01 0.01 0.01 0.01 0.01 0.02 0.02 0.02 0.02 0.01 0.01 0.05 0.09 0.04 0.06 0.11 0.07 0.03 0.02 0.02 0.01 0.01
0.00 0.01 0.01 0.00 0.01 0.01 0.01 0.02 0.02 0.02 0.02 0.02 0.01 0.01 0.01 0.01 0.01 0.00 0.00 0.01 0.01 0.01 0.01 0.02 0.02 0.01 0.01 0.01 0.01 0.01 0.01 0.01 0.03 0.04 0.05 0.10 0.12 0.06 0.03 0.03 0.03 0.02 0.02
0.01 0.01 0.02 0.01 0.01 0.01 0.01 0.01 0.02 0.02 0.02 0.02 0.02 0.02 0.01 0.02 0.01 0.01 0.01 0.01 0.01 0.02 0.02 0.02 0.01 0.01 0.01 0.01 0.01 0.00 0.00 0.01 0.02 0.03 0.05 0.10 0.08 0.04 0.03 0.04 0.04 0.03 0.02
0.03 0.03 0.03 0.03 0.02 0.02 0.01 0.01 0.01 0.01 0.01 0.01 0.01 0.01 0.01 0.01 0.01 0.01 0.01 0.02 0.01 0.01 0.01 0.01 0.01 0.01 0.01 0.01 0.00 0.00 0.00 0.00 0.01 0.03 0.07 0.09 0.06 0.05 0.04 0.04 0.05 0.04 0.04
0.03 0.03 0.04 0.04 0.04 0.04 0.02 0.00 0.00 0.01 0.01 0.02 0.02 0.01 0.01 0.04 0.04 0.03 0.02 0.02 0.01 0.01 0.01 0.01 0.01 0.01 0.01 0.01 0.01 0.00 0.00 0.00 0.01 0.04 0.12 0.12 0.07 0.04 0.04 0.04 0.05 0.05 0.07
0.05 0.04 0.04 0.04 0.03 0.03 0.03 0.02 0.02 0.01 0.01 0.02 0.03 0.02 0.03 0.05 0.04 0.04 0.05 0.03 0.02 0.02 0.02 0.02 0.02 0.02 0.02 0.02 0.04 0.03 0.01 0.01 0.02 0.04 0.09 0.07 0.06 0.05 0.04 0.05 0.06 0.08 0.09
0.05 0.06 0.05 0.05 0.05 0.04 0.06 0.07 0.06 0.04 0.03 0.03 0.04 0.04 0.05 0.06 0.05 0.06 0.06 0.06 0.04 0.03 0.03 0.06 0.05 0.04 0.04 0.04 0.05 0.04 0.03 0.04 0.05 0.05 0.10 0.09 0.07 0.05 0.04 0.06 0.08 0.10 0.10
0.03 0.04 0.04 0.05 0.05 0.04 0.06 0.08 0.07 0.05 0.06 0.06 0.06 0.05 0.07 0.08 0.08 0.08 0.09 0.08 0.07 0.06 0.07 0.09 0.09 0.07 0.06 0.04 0.04 0.04 0.04 0.03 0.02 0.06 0.11 0.06 0.08 0.08 0.05 0.06 0.07 0.09 0.10
0.04 0.05 0.05 0.05 0.06 0.05 0.06 0.07 0.06 0.08 0.09 0.09 0.10 0.10 0.09 0.10 0.10 0.10 0.09 0.09 0.07 0.07 0.07 0.09 0.07 0.09 0.08 0.06 0.04 0.04 0.05 0.04 0.02 0.07 0.08 0.07 0.08 0.07 0.05 0.06 0.08 0.11 0.18
0.03 0.05 0.05 0.05 0.06 0.06 0.06 0.07 0.08 0.08 0.10 0.10 0.10 0.10 0.10 0.11 0.11 0.10 0.10 0.10 0.07 0.06 0.07 0.08 0.08 0.09 0.10 0.09 0.06 0.06 0.05 0.04 0.06 0.08 0.07 0.09 0.06 0.04 0.04 0.05 0.06 0.10 0.15
0.04 0.05 0.05 0.06 0.09 0.09 0.08 0.07 0.08 0.09 0.09 0.10 0.10 0.10 0.10 0.11 0.12 0.11 0.11 0.10 0.08 0.07 0.09 0.09 0.10 0.10 0.09 0.08 0.08 0.10 0.10 0.07 0.07 0.07 0.05 0.05 0.05 0.04 0.04 0.04 0.04 0.06 0.08
0.03 0.04 0.05 0.06 0.10 0.10 0.10 0.09 0.09 0.08 0.09 0.09 0.09 0.09 0.09 0.09 0.10 0.11 0.11 0.10 0.09 0.08 0.10 0.09 0.10 0.09 0.09 0.09 0.10 0.09 0.08 0.07 0.05 0.03 0.03 0.03 0.05 0.07 0.07 0.05 0.04 0.04 0.05
0.03 0.05 0.06 0.06 0.08 0.10 0.10 0.13 0.13 0.11 0.09 0.09 0.09 0.09 0.10 0.10 0.11 0.12 0.10 0.09 0.09 0.09 0.09 0.06 0.08 0.09 0.08 0.10 0.10 0.08 0.07 0.07 0.07 0.05 0.04 0.04 0.05 0.09 0.10 0.09 0.07 0.04 0.05
0.02 0.04 0.06 0.06 0.06 0.08 0.09 0.10 0.12 0.13 0.11 0.11 0.11 0.10 0.10 0.11 0.13 0.13 0.09 0.08 0.09 0.11 0.10 0.09 0.09 0.09 0.07 0.08 0.08 0.08 0.07 0.07 0.07 0.06 0.05 0.06 0.06 0.07 0.09 0.10 0.10 0.06 0.06
0.03 0.03 0.04 0.05 0.06 0.07 0.09 0.11 0.11 0.13 0.12 0.10 0.11 0.10 0.09 0.09 0.10 0.13 0.12 0.11 0.11 0.11 0.10 0.10 0.10 0.11 0.10 0.09 0.09 0.09 0.07 0.07 0.07 0.07 0.07 0.07 0.06 0.07 0.09 0.11 0.12 0.12 0.09
0.04 0.05 0.06 0.06 0.07 0.09 0.13 0.15 0.16 0.18 0.15 0.11 0.11 0.10 0.08 0.07 0.07 0.07 0.09 0.09 0.09 0.08 0.07 0.08 0.10 0.10 0.10 0.11 0.10 0.10 0.09 0.08 0.08 0.08 0.08 0.08 0.08 0.09 0.08 0.09 0.11 0.12 0.12
0.08 0.06 0.09 0.14 0.14 0.14 0.19 0.22 0.19 0.20 0.18 0.15 0.11 0.10 0.08 0.07 0.07 0.06 0.06 0.05 0.05 0.05 0.05 0.05 0.07 0.07 0.07 0.09 0.11 0.11 0.10 0.09 0.10 0.10 0.08 0.08 0.09 0.10 0.10 0.10 0.10 0.08 0.09
0.12 0.09 0.14 0.22 0.18 0.15 0.16 0.18 0.18 0.17 0.20 0.18 0.12 0.09 0.07 0.06 0.04 0.04 0.03 0.03 0.03 0.04 0.04 0.04 0.06 0.06 0.07 0.08 0.09 0.11 0.11 0.11 0.10 0.09 0.09 0.09 0.09 0.10 0.11 0.10 0.09 0.09 0.08
0.08 0.08 0.10 0.14 0.14 0.11 0.10 0.12 0.15 0.15 0.15 0.16 0.13 0.10 0.07 0.05 0.03 0.03 0.03 0.03 0.04 0.05 0.05 0.05 0.06 0.06 0.07 0.09 0.09 0.10 0.10 0.11 0.10 0.09 0.08 0.08 0.08 0.09 0.09 0.08 0.09 0.09 0.08
0.07 0.07 0.08 0.09 0.10 0.11 0.10 0.12 0.12 0.12 0.13 0.11 0.09 0.07 0.06 0.05 0.04 0.03 0.03 0.03 0.04 0.04 0.04 0.04 0.04 0.04 0.06 0.07 0.08 0.09 0.09 0.10 0.10 0.09 0.08 0.08 0.09 0.08 0.08 0.07 0.07 0.07 0.06
MSLP
1009.42 1009.56 1009.95 1010.53 1011.22 1011.89 1012.47 1012.88 1013.14 1013.27 1013.35 1013.46 1013.65 1013.94 1014.30 1014.68 1015.03 1015.29 1015.44 1015.49 1015.48 1015.46 1015.47 1015.55 1015.69 1015.87 1016.05 1016.20 1016.29 1016.31 1016.29 1016.25 1016.25 1016.30 1016.42 1016.59 1016.79 1016.99 1017.16 1017.29 1017.38 1017.45 1017.51
1009.33 1009.58 1010.07 1010.73 1011.44 1012.12 1012.66 1013.02 1013.23 1013.33 1013.42 1013.56 1013.81 1014.17 1014.60 1015.05 1015.43 1015.70 1015.83 1015.84 1015.78 1015.71 1015.67 1015.71 1015.83 1016.00 1016.17 1016.31 1016.38 1016.39 1016.36 1016.32 1016.32 1016.38 1016.51 1016.70 1016.93 1017.15 1017.34 1017.48 1017.58 1017.66 1017.74
1009.15 1009.54 1010.14 1010.89 1011.65 1012.34 1012.87 1013.20 1013.38 1013.47 1013.55 1013.71 1013.99 1014.38 1014.85 1015.31 1015.69 1015.94 1016.04 1016.02 1015.93 1015.84 1015.80 1015.83 1015.95 1016.11 1016.27 1016.40 1016.45 1016.44 1016.40 1016.34 1016.34 1016.40 1016.54 1016.75 1017.00 1017.25 1017.46 1017.64 1017.77 1017.88 1017.98
1008.91 1009.44 1010.17 1011.00 1011.83 1012.55 1013.09 1013.42 1013.59 1013.67 1013.75 1013.91 1014.19 1014.58 1015.03 1015.47 1015.82 1016.04 1016.11 1016.08 1015.99 1015.90 1015.88 1015.93 1016.07 1016.24 1016.40 1016.50 1016.53 1016.50 1016.42 1016.35 1016.32 1016.38 1016.53 1016.75 1017.02 1017.29 1017.54 1017.75 1017.92 1018.07 1018.21
1008.63 1009.30 1010.14 1011.07 1011.97 1012.73 1013.29 1013.64 1013.82 1013.91 1013.99 1014.15 1014.41 1014.77 1015.17 1015.56 1015.86 1016.04 1016.09 1016.06 1015.99 1015.94 1015.96 1016.06 1016.22 1016.40 1016.56 1016.64 1016.64 1016.57 1016.45 1016.35 1016.30 1016.35 1016.49 1016.72 1017.00 1017.30 1017.57 1017.82 1018.03 1018.22 1018.40
1008.38 1009.15 1010.08 1011.09 1012.05 1012.85 1013.45 1013.83 1014.04 1014.14 1014.24 1014.39 1014.62 1014.93 1015.28 1015.60 1015.85 1016.00 1016.04 1016.02 1015.99 1015.99 1016.07 1016.22 1016.42 1016.62 1016.76 1016.82 1016.78 1016.66 1016.50 1016.36 1016.29 1016.31 1016.45 1016.67 1016.96 1017.26 1017.56 1017.83 1018.07 1018.30 1018.52
1008.19 1009.02 1010.01 1011.06 1012.05 1012.89 1013.52 1013.94 1014.18 1014.32 1014.43 1014.58 1014.80 1015.07 1015.36 1015.63 1015.83 1015.95 1015.99 1016.00 1016.01 1016.08 1016.21 1016.41 1016.64 1016.84 1016.97 1017.00 1016.91 1016.75 1016.55 1016.37 1016.27 1016.28 1016.39 1016.61 1016.89 1017.19 1017.49 1017.78 1018.04 1018.29 1018.53
1008.11 1008.94 1009.93 1010.98 1011.97 1012.81 1013.47 1013.92 1014.20 1014.38 1014.53 1014.70 1014.91 1015.16 1015.41 1015.64 1015.81 1015.91 1015.96 1015.99 1016.05 1016.17 1016.35 1016.58 1016.82 1017.01 1017.12 1017.11 1016.99 1016.79 1016.55 1016.35 1016.23 1016.22 1016.33 1016.53 1016.79 1017.09 1017.39 1017.67 1017.94 1018.20 1018.46
1008.12 1008.91 1009.85 1010.84 1011.79 1012.62 1013.27 1013.74 1014.06 1014.29 1014.48 1014.68 1014.91 1015.15 1015.40 1015.60 1015.76 1015.86 1015.92 1015.98 1016.07 1016.21 1016.42 1016.66 1016.89 1017.06 1017.14 1017.10 1016.95 1016.73 1016.48 1016.27 1016.14 1016.13 1016.23 1016.42 1016.67 1016.96 1017.25 1017.52 1017.79 1018.05 1018.31
1008.20 1008.91 1009.75 1010.66 1011.53 1012.30 1012.92 1013.40 1013.76 1014.03 1014.27 1014.52 1014.77 1015.03 1015.28 1015.49 1015.65 1015.76 1015.83 1015.91 1016.02 1016.17 1016.37 1016.60 1016.80 1016.95 1017.00 1016.93 1016.77 1016.54 1016.30 1016.10 1015.98 1015.98 1016.08 1016.27 1016.52 1016.79 1017.07 1017.35 1017.61 1017.87 1018.13
1008.28 1008.89 1009.62 1010.41 1011.18 1011.87 1012.46 1012.93 1013.30 1013.61 1013.90 1014.19 1014.49 1014.78 1015.05 1015.28 1015.45 1015.58 1015.66 1015.75 1015.86 1016.01 1016.19 1016.38 1016.55 1016.66 1016.68 1016.60 1016.44 1016.22 1016.01 1015.83 1015.74 1015.76 1015.87 1016.06 1016.31 1016.59 1016.87 1017.14 1017.41 1017.68 1017.94
1008.30 1008.81 1009.42 1010.09 1010.76 1011.37 1011.90 1012.35 1012.73 1013.07 1013.40 1013.73 1014.07 1014.40 1014.70 1014.96 1015.15 1015.30 1015.40 1015.49 1015.60 1015.72 1015.87 1016.03 1016.16 1016.23 1016.23 1016.15 1016.00 1015.81 1015.63 1015.49 1015.43 1015.47 1015.59 1015.79 1016.04 1016.32 1016.61 1016.90 1017.19 1017.48 1017.76
1008.20 1008.62 1009.14 1009.71 1010.28 1010.81 1011.29 1011.72 1012.09 1012.45 1012.81 1013.17 1013.55 1013.91 1014.25 1014.53 1014.76 1014.93 1015.06 1015.16 1015.26 1015.36 1015.48 1015.60 1015.69 1015.74 1015.73 1015.65 1015.52 1015.37 1015.22 1015.11 1015.08 1015.12 1015.25 1015.45 1015.71 1016.00 1016.30 1016.62 1016.94 1017.26 1017.57
1007.92 1008.30 1008.76 1009.26 1009.76 1010.25 1010.69 1011.09 1011.46 1011.83 1012.20 1012.59 1012.98 1013.37 1013.73 1014.05 1014.31 1014.51 1014.66 1014.78 1014.88 1014.98 1015.08 1015.16 1015.23 1015.26 1015.25 1015.18 1015.07 1014.94 1014.82 1014.74 1014.70 1014.75 1014.86 1015.05 1015.30 1015.59 1015.92 1016.27 1016.63 1016.99 1017.36
1007.47 1007.85 1008.28 1008.76 1009.23 1009.69 1010.12 1010.51 1010.89 1011.26 1011.64 1012.03 1012.43 1012.83 1013.21 1013.55 1013.85 1014.09 1014.27 1014.41 1014.53 1014.63 1014.72 1014.80 1014.86 1014.88 1014.87 1014.81 1014.72 1014.61 1014.49 1014.40 1014.35 1014.36 1014.45 1014.60 1014.83 1015.12 1015.46 1015.84 1016.25 1016.67 1017.08
1006.89 1007.29 1007.74 1008.22 1008.71 1009.18 1009.62 1010.02 1010.41 1010.78 1011.16 1011.54 1011.94 1012.34 1012.72 1013.08 1013.41 1013.68 1013.90 1014.09 1014.24 1014.36 1014.46 1014.55 1014.61 1014.64 1014.63 1014.58 1014.49 1014.38 1014.26 1014.14 1014.05 1014.01 1014.03 1014.13 1014.32 1014.59 1014.93 1015.34 1015.79 1016.26 1016.73
1006.24 1006.69 1007.18 1007.70 1008.22 1008.72 1009.19 1009.62 1010.03 1010.41 1010.78 1011.16 1011.54 1011.92 1012.31 1012.67 1013.01 1013.32 1013.58 1013.81 1014.00 1014.16 1014.29 1014.39 1014.47 1014.51 1014.51 1014.47 1014.39 1014.26 1014.11 1013.95 1013.80 1013.69 1013.64 1013.67 1013.80 1014.04 1014.37 1014.79 1015.27 1015.79 1016.31
1005.63 1006.12 1006.66 1007.22 1007.78 1008.33 1008.84 1009.31 1009.73 1010.13 1010.50 1010.87 1011.23 1011.59 1011.96 1012.32 1012.67 1012.99 1013.29 1013.56 1013.79 1013.99 1014.16 1014.29 1014.40 1014.46 1014.48 1014.45 1014.36 1014.22 1014.04 1013.83 1013.62 1013.43 1013.30 1013.26 1013.32 1013.51 1013.82 1014.23 1014.73 1015.28 1015.84
1005.15 1005.68 1006.25 1006.84 1007.43 1008.00 1008.54 1009.04 1009.50 1009.91 1010.29 1010.64 1010.99 1011.33 1011.67 1012.01 1012.35 1012.69 1013.01 1013.30 1013.57 1013.81 1014.02 1014.19 1014.32 1014.42 1014.46 1014.44 1014.36 1014.22 1014.01 1013.76 1013.49 1013.24 1013.03 1012.91 1012.91 1013.04 1013.31 1013.71 1014.20 1014.76 1015.35
1004.88 1005.42 1005.99 1006.57 1007.15 1007.73 1008.28 1008.80 1009.28 1009.71 1010.10 1010.46 1010.79 1011.10 1011.42 1011.74 1012.06 1012.39 1012.71 1013.02 1013.31 1013.57 1013.82 1014.02 1014.20 1014.32 1014.40 1014.41 1014.34 1014.21 1013.99 1013.72 1013.41 1013.11 1012.84 1012.66 1012.60 1012.67 1012.90 1013.25 1013.73 1014.28 1014.86
1004.88 1005.39 1005.91 1006.43 1006.96 1007.50 1008.04 1008.56 1009.05 1009.50 1009.91 1010.27 1010.60 1010.91 1011.20 1011.49 1011.78 1012.08 1012.39 1012.69 1012.98 1013.27 1013.53 1013.77 1013.98 1014.15 1014.27 1014.31 1014.29 1014.17 1013.97 1013.70 1013.38 1013.05 1012.75 1012.52 1012.40 1012.42 1012.58 1012.89 1013.32 1013.84 1014.41
1005.15 1005.59 1006.00 1006.42 1006.85 1007.30 1007.79 1008.28 1008.77 1009.25 1009.68 1010.07 1010.42 1010.72 1011.00 1011.27 1011.52 1011.78 1012.05 1012.33 1012.61 1012.89 1013.17 1013.44 1013.69 1013.90 1014.07 1014.17 1014.18 1014.11 1013.95 1013.70 1013.39 1013.06 1012.73 1012.47 1012.31 1012.27 1012.38 1012.62 1012.99 1013.45 1013.98
1005.64 1005.97 1006.24 1006.50 1006.78 1007.12 1007.51 1007.96 1008.45 1008.94 1009.42 1009.85 1010.23 1010.55 1010.83 1011.07 1011.30 1011.51 1011.73 1011.97 1012.22 1012.50 1012.78 1013.07 1013.35 1013.61 1013.83 1013.99 1014.07 1014.05 1013.93 1013.73 1013.45 1013.12 1012.80 1012.52 1012.32 1012.23 1012.26 1012.43 1012.72 1013.11 1013.58
1006.28 1006.46 1006.56 1006.63 1006.74 1006.93 1007.22 1007.61 1008.08 1008.60 1009.12 1009.61 1010.04 1010.40 1010.69 1010.92 1011.11 1011.29 1011.46 1011.65 1011.87 1012.12 1012.40 1012.71 1013.03 1013.33 1013.61 1013.83 1013.97 1014.01 1013.95 1013.78 1013.54 1013.24 1012.92 1012.63 1012.40 1012.26 1012.23 1012.31 1012.51 1012.81 1013.19
1006.95 1006.98 1006.89 1006.77 1006.69 1006.73 1006.91 1007.24 1007.70 1008.24 1008.81 1009.36 1009.85 1010.26 1010.57 1010.81 1010.98 1011.12 1011.25 1011.39 1011.58 1011.81 1012.09 1012.41 1012.76 1013.11 1013.43 1013.71 1013.90 1014.00 1013.99 1013.88 1013.67 1013.39 1013.08 1012.78 1012.52 1012.34 1012.24 1012.25 1012.35 1012.55 1012.83
1007.55 1007.43 1007.17 1006.87 1006.63 1006.53 1006.61 1006.88 1007.32 1007.88 1008.50 1009.11 1009.66 1010.12 1010.47 1010.71 1010.88 1010.99 1011.08 1011.20 1011.35 1011.57 1011.85 1012.19 1012.56 1012.95 1013.32 1013.65 1013.89 1014.04 1014.07 1013.99 1013.81 1013.55 1013.26 1012.95 1012.68 1012.45 1012.30 1012.23 1012.24 1012.34 1012.52
Thickness
5824 5818 5811 5807 5802 5799 5795 5792 5789 5786 5783 5780 5777 5775 5772 5770 5768 5766 5764 5761 5759 5757 5755 5754 5752 5751 5750 5748 5747 5746 5745 5745 5744 5743 5742 5740 5739 5737 5736 5735 5734 5733 5731
5826 5816 5809 5804 5800 5796 5793 5789 5786 5783 5780 5777 5775 5772 5769 5766 5764 5762 5760 5758 5756 5754 5753 5751 5750 5749 5748 5746 5745 5744 5743 5743 5742 5741 5740 5739 5737 5735 5734 5733 5733 5731 5729
5823 5814 5807 5802 5798 5794 5790 5787 5784 5780 5777 5774 5771 5769 5766 5763 5761 5759 5757 5755 5753 5752 5750 5748 5747 5746 5745 5744 5743 5742 5741 5741 5740 5740 5739 5739 5736 5734 5732 5731 5730 5728 5727
5821 5812 5806 5799 5795 5791 5787 5784 5780 5777 5774 5771 5768 5765 5762 5760 5757 5755 5754 5752 5750 5749 5747 5746 5744 5743 5742 5741 5740 5740 5739 5739 5739 5738 5739 5738 5736 5733 5731 5729 5727 5726 5725
5820 5811 5801 5797 5792 5788 5784 5780 5777 5774 5771 5767 5765 5762 5759 5757 5754 5752 5751 5749 5747 5745 5744 5743 5742 5741 5740 5739 5738 5738 5737 5737 5737 5737 5739 5738 5736 5732 5730 5728 5726 5724 5723
5819 5808 5799 5794 5789 5785 5782 5778 5774 5771 5767 5764 5761 5759 5756 5754 5752 5749 5747 5746 5744 5742 5741 5740 5739 5738 5737 5736 5736 5735 5735 5735 5735 5738 5739 5737 5733 5731 5729 5727 5725 5723 5721
5817 5805 5796 5791 5786 5782 5778 5775 5771 5767 5764 5761 5758 5755 5753 5750 5748 5746 5744 5743 5741 5740 5738 5737 5737 5735 5734 5734 5733 5733 5733 5733 5734 5737 5738 5736 5733 5731 5728 5726 5724 5722 5720
5814 5802 5792 5787 5783 5779 5775 5771 5768 5764 5761 5758 5755 5752 5749 5747 5745 5743 5742 5740 5738 5737 5736 5734 5734 5733 5732 5731 5731 5731 5732 5732 5734 5737 5736 5735 5733 5731 5728 5725 5722 5720 5718
5812 5799 5790 5784 5779 5775 5771 5767 5764 5761 5757 5754 5752 5749 5746 5744 5742 5741 5739 5737 5736 5735 5733 5732 5731 5730 5730 5729 5729 5730 5730 5731 5731 5734 5734 5732 5729 5728 5726 5724 5721 5719 5717
5807 5797 5789 5783 5777 5772 5768 5764 5761 5757 5755 5752 5749 5746 5744 5742 5741 5739 5737 5735 5734 5732 5731 5730 5728 5728 5728 5728 5728 5728 5729 5729 5731 5732 5731 5729 5727 5725 5724 5723 5721 5718 5716
5800 5795 5789 5783 5777 5773 5768 5762 5758 5754 5751 5749 5746 5744 5742 5741 5740 5738 5736 5734 5732 5730 5729 5727 5726 5726 5726 5726 5726 5726 5726 5727 5730 5731 5729 5728 5725 5723 5723 5722 5720 5717 5715
5791 5789 5787 5782 5777 5773 5769 5760 5755 5752 5749 5746 5745 5742 5741 5740 5740 5739 5736 5733 5730 5728 5727 5726 5725 5724 5723 5725 5725 5725 5725 5726 5728 5729 5726 5724 5722 5721 5721 5720 5718 5716 5713
5789 5785 5783 5780 5775 5772 5767 5758 5754 5752 5748 5745 5744 5741 5740 5739 5738 5736 5733 5730 5728 5726 5725 5725 5723 5722 5723 5724 5725 5724 5724 5725 5726 5726 5724 5722 5720 5719 5718 5717 5716 5714 5712
5785 5782 5780 5776 5772 5769 5764 5758 5753 5751 5747 5745 5742 5739 5737 5735 5734 5733 5731 5728 5727 5725 5724 5724 5723 5722 5722 5722 5723 5723 5723 5724 5724 5723 5722 5721 5718 5717 5715 5714 5714 5712 5710
5780 5777 5776 5772 5767 5764 5760 5756 5752 5748 5745 5742 5739 5735 5733 5731 5730 5729 5727 5725 5724 5723 5723 5721 5720 5720 5719 5720 5720 5720 5720 5720 5721 5719 5717 5717 5716 5715 5713 5712 5711 5710 5708
5776 5772 5771 5768 5763 5759 5754 5750 5747 5745 5741 5738 5734 5730 5728 5727 5725 5724 5722 5721 5720 5719 5719 5718 5717 5715 5715 5715 5715 5716 5716 5716 5716 5716 5714 5713 5712 5711 5710 5710 5708 5707 5706
5771 5768 5764 5761 5758 5753 5749 5745 5742 5738 5736 5733 5729 5726 5723 5721 5719 5718 5717 5716 5716 5715 5714 5713 5712 5711 5711 5711 5710 5710 5711 5712 5711 5711 5711 5710 5709 5708 5707 5706 5705 5704 5703
5768 5763 5760 5757 5751 5746 5742 5739 5736 5734 5731 5727 5724 5721 5718 5715 5714 5712 5712 5711 5710 5710 5709 5708 5708 5706 5705 5705 5704 5705 5707 5707 5708 5707 5707 5707 5706 5705 5704 5702 5701 5700 5700
5763 5758 5753 5750 5745 5741 5737 5734 5731 5728 5725 5723 5719 5716 5713 5710 5709 5707 5706 5706 5705 5705 5704 5703 5702 5701 5699 5698 5699 5700 5702 5703 5704 5704 5704 5704 5704 5703 5701 5700 5698 5697 5697
5756 5751 5747 5743 5739 5735 5732 5728 5725 5721 5719 5717 5713 5709 5707 5705 5703 5701 5701 5700 5699 5698 5697 5696 5695 5694 5693 5692 5693 5694 5696 5698 5700 5700 5700 5700 5700 5700 5698 5697 5695 5694 5694
5747 5743 5740 5736 5732 5728 5724 5720 5716 5713 5712 5710 5708 5704 5701 5700 5698 5696 5696 5694 5694 5692 5691 5690 5688 5687 5686 5687 5684 5684 5689 5693 5695 5695 5695 5695 5695 5695 5694 5692 5692 5691 5690
5738 5735 5732 5729 5726 5722 5719 5716 5713 5710 5706 5705 5703 5699 5697 5695 5693 5692 5689 5688 5688 5686 5684 5683 5682 5679 5680 5680 5677 5674 5675 5680 5686 5690 5690 5689 5689 5689 5689 5689 5688 5687 5686
5729 5727 5726 5723 5720 5716 5713 5711 5707 5703 5699 5696 5694 5692 5691 5689 5687 5685 5684 5682 5681 5680 5678 5677 5676 5674 5672 5674 5674 5670 5666 5667 5672 5679 5681 5682 5683 5682 5682 5683 5682 5682 5681
5722 5722 5720 5716 5712 5709 5706 5703 5698 5693 5689 5688 5687 5686 5685 5683 5682 5680 5678 5676 5674 5673 5672 5671 5670 5668 5667 5666 5668 5668 5666 5666 5662 5664 5670 5674 5675 5675 5675 5676 5676 5676 5675
5718 5716 5712 5707 5703 5700 5698 5695 5690 5686 5684 5682 5680 5678 5677 5677 5676 5674 5672 5670 5668 5666 5666 5664 5663 5662 5661 5660 5660 5660 5660 5661 5662 5658 5658 5663 5666 5668 5669 5670 5670 5669 5669
5712 5708 5704 5699 5696 5692 5689 5686 5682 5679 5676 5674 5671 5671 5669 5669 5668 5667 5666 5663 5661 5659 5659 5658 5657 5656 5654 5654 5653 5653 5653 5654 5655 5655 5654 5655 5656 5660 5663 5664 5664 5664 5664